This is the latest recevied weather packets stored in our database for station/object G4KVI. If no packets are shown the sender has not sent any weather packets the latest 10 day(s).
| Time | Temp. | Humidity | Pressure | Rain* | Wind** | Luminosity | Snow |
|---|---|---|---|---|---|---|---|
| 1787919005 | 21.11° C | 66% | 1009 hPa | 0 mm | - | 381 W/m² | - |
| 1787918705 | 21.67° C | 65% | 1008.9 hPa | 0 mm | - | 389 W/m² | - |
| 1787918414 | 21.67° C | 62% | 1008.9 hPa | 0 mm | - | 384 W/m² | - |
| 1787918104 | 21.67° C | 63% | 1008.7 hPa | 0 mm | - | 724 W/m² | - |
| 1787917804 | 21.67° C | 63% | 1008.8 hPa | 0 mm | - | 569 W/m² | - |
| 1787917504 | 21.67° C | 62% | 1008.6 hPa | 0 mm | - | 647 W/m² | - |
| 1787917204 | 21.11° C | 65% | 1008.8 hPa | 0 mm | - | 570 W/m² | - |
| 1787916905 | 20.56° C | 67% | 1008.9 hPa | 0 mm | - | 796 W/m² | - |
| 1787916604 | 20° C | 67% | 1009.1 hPa | 0 mm | - | 214 W/m² | - |
| 1787916304 | 20.56° C | 67% | 1008.9 hPa | 0 mm | - | 149 W/m² | - |
| 1787916004 | 20.56° C | 66% | 1008.6 hPa | 0 mm | - | 136 W/m² | - |
| 1787915705 | 20.56° C | 68% | 1008.8 hPa | 0 mm | - | 278 W/m² | - |
| 1787915404 | 20.56° C | 67% | 1008.6 hPa | 0 mm | - | 211 W/m² | - |
| 1787915104 | 21.11° C | 65% | 1008.6 hPa | 0 mm | - | 146 W/m² | - |
| 1787914804 | 21.11° C | 65% | 1008.7 hPa | 0 mm | - | 427 W/m² | - |
| 1787914505 | 22.22° C | 62% | 1008.8 hPa | 0 mm | - | 236 W/m² | - |
| 1787914204 | 22.22° C | 62% | 1008.6 hPa | 0 mm | - | 808 W/m² | - |
| 1787913904 | 21.11° C | 66% | 1008.7 hPa | 0 mm | - | 886 W/m² | - |
| 1787913604 | 21.11° C | 67% | 1008.6 hPa | 0 mm | - | 423 W/m² | - |
| 1787913304 | 20.56° C | 68% | 1008.5 hPa | 0 mm | - | 712 W/m² | - |
| 1787913004 | 20.56° C | 66% | 1008.6 hPa | 0 mm | - | 266 W/m² | - |
| 1787912704 | 20.56° C | 67% | 1008.4 hPa | 0 mm | - | 254 W/m² | - |
| 1787912104 | 21.11° C | 66% | 1008.6 hPa | 0 mm | - | 268 W/m² | - |
| 1787911804 | 21.67° C | 64% | 1008.5 hPa | 0 mm | - | 176 W/m² | - |
| 1787911504 | 21.11° C | 65% | 1008.6 hPa | 0 mm | - | 730 W/m² | - |
* Rain latest hour (hover to see other rain measurements)
** Current wind speed in m/s (hover to see current wind gust speed)